FLOCK 4Y 22

导读

FLOCK 4Y 22是美国Planet公司于2023年1月3日发射的SuperDove遥感卫星,属于Flock-4y批次卫星群,是Planet商业Dove遥感星座的补充卫星。该卫星运行于近地轨道,配备多光谱成像载荷,拥有八个光谱波段,能够获取高分辨率地球影像数据。可为农业、林业、环境监测等领域提供持续观测服务,助力行业决策与地理信息应用,提升星座整体对地观测能力。

基本信息
目录编号:
55022
目录名称:
FLOCK 4Y 22
国际标识:
2023-001P
轨道中心:
EARTH
卫星名称:
FLOCK 4Y 22
卫星全名:
--
卫星状态:
已陨落 最后检测时间 2025-10-04
发射日期:
2023-01-03 UTC
国别 :
美国 (US)
星等 :
--
轨道信息
数据来源 国际轨道数据
星历时间: 2025-10-04T19:42:16+0800
轨道信息已过期296天
半长轴: 6554.281km
偏心率: 0.0013606
轨道倾角: 97.334°
近地点辐角 267.570°
升交点赤经 355.466°
平近点角 92.404°
近地点: 167.228km
远地点: 185.064km
周期: 88.013分钟
每日圈数: 16.361204
详细信息
使用方式:
暂无